Location: Mountain View
(37.3861°N, 122.0839°W)
Time: 22:58:21
(UTC-08:00)

Tiangong - Visible Passes

Search period start: 19 January 2026 00:00
Search period end: 29 January 2026 00:00
Orbit: 378 x 393 km, 41.5° (Epoch: 19 January)

Date Brightness Start Highest point End Pass type
(mag) Time Alt. Az. Time Alt. Az. Time Alt. Az.
19 Jan -1.4 05:29:20 52° ESE 05:29:20 52° ESE 05:32:05 10° ENE visible
20 Jan -2.0 06:05:20 34° WNW 06:06:27 56° NNW 06:09:36 10° ENE visible
21 Jan 0.3 05:08:56 22° ENE 05:08:56 22° ENE 05:10:13 10° ENE visible
21 Jan -1.3 06:41:11 11° WNW 06:44:06 37° N 06:47:07 10° ENE visible
22 Jan -1.5 05:44:40 42° N 05:44:40 42° N 05:47:37 10° ENE visible
23 Jan 1.4 04:48:03 11° ENE 04:48:03 11° ENE 04:48:09 10° ENE visible
23 Jan -1.2 06:20:17 19° WNW 06:22:10 37° N 06:25:11 10° ENE visible
24 Jan -0.4 05:23:36 28° NE 05:23:36 28° NE 05:25:33 10° ENE visible
25 Jan -1.4 05:59:06 31° NW 06:00:05 42° N 06:03:09 10° E visible
26 Jan 0.6 05:02:21 18° ENE 05:02:21 18° ENE 05:03:23 10° ENE visible
26 Jan -2.1 06:34:34 12° WNW 06:37:28 84° NNE 06:40:39 10° ESE visible
27 Jan -1.8 05:37:47 56° NNE 05:37:49 56° NNE 05:40:56 10° E visible
28 Jan 1.5 04:41:01 11° E 04:41:01 11° E 04:41:08 10° E visible
28 Jan -1.9 06:13:14 22° W 06:15:00 57° SSW 06:18:08 10° SE visible
